Temperature
8 8 8 8 9 9 9 9 9 9 10 10 9 10 10 10 10 10 10 10 10 10 10 10 10 10 10 11 11 11 11 11 11 11 11 11 11 11 11 11 11 11 10
7 7 8 8 8 8 8 9 9 9 9 9 9 9 9 9 9 10 10 10 10 10 10 10 10 10 10 10 10 10 10 10 10 10 10 11 11 11 11 10 10 10 10
7 7 7 7 7 7 8 8 8 8 8 8 8 9 9 9 9 9 9 9 9 9 9 9 9 10 10 10 10 10 10 10 10 10 10 10 10 10 10 10 10 10 10
6 6 6 6 7 7 7 7 7 7 8 8 8 8 8 8 8 9 9 9 9 9 9 9 9 9 9 9 9 9 9 9 9 9 9 10 10 10 10 10 10 10 10
5 6 6 6 6 6 6 6 6 7 7 7 7 7 8 8 8 8 8 8 8 8 8 8 8 9 9 9 9 9 9 9 9 9 9 9 9 9 9 9 9 9 9
5 5 5 5 5 5 5 5 6 6 6 6 6 7 7 7 7 7 7 7 7 7 8 8 8 8 8 8 8 8 8 8 8 9 9 9 9 9 9 9 9 9 9
4 4 4 4 5 5 5 5 5 5 5 5 6 6 6 6 7 7 7 7 7 7 7 7 7 7 7 8 8 8 8 8 8 8 8 8 8 8 9 9 9 9 9
3 3 4 4 4 4 4 4 4 4 4 4 4 5 5 5 5 6 6 6 6 6 6 6 6 6 7 7 7 7 7 7 7 8 8 8 8 8 8 8 8 8 9
3 3 3 3 3 3 3 3 3 3 3 3 3 3 3 3 4 5 5 5 5 6 6 6 6 6 6 6 6 7 7 7 7 7 7 7 7 8 8 8 8 8 8
2 2 2 2 3 3 3 2 2 2 2 3 3 3 3 3 3 3 4 5 5 5 5 5 5 5 5 5 6 6 6 6 6 6 7 7 7 7 7 7 7 8 8
2 2 2 2 2 2 2 2 2 1 2 2 2 2 2 2 2 2 2 3 4 4 4 4 5 5 5 5 5 5 5 5 6 6 6 6 6 7 7 7 7 7 7
1 1 1 1 1 1 1 1 1 1 1 1 1 1 1 1 1 1 1 2 3 3 4 4 4 4 4 4 4 5 5 5 5 5 6 6 6 6 6 6 7 7 7
1 1 0 0 1 1 1 1 0 0 0 0 1 1 1 1 1 1 1 1 1 2 2 3 3 3 3 4 4 4 4 4 5 5 5 5 5 5 6 6 6 6 6
-0 0 -0 -0 -0 -0 -0 -0 -0 -0 -0 -0 0 0 0 0 0 0 0 0 0 0 1 2 2 2 3 3 3 3 3 4 4 4 4 5 5 5 5 5 5 5 5
-1 -1 -1 -1 -1 -1 -1 -1 -1 -1 -1 -1 -0 -0 -0 0 -0 0 0 0 -0 -1 -0 1 1 2 2 2 2 2 3 3 3 3 3 4 4 4 4 4 5 5 5
-1 -1 -1 -1 -1 -1 -1 -1 -1 -1 -1 -1 -1 -1 -1 -0 -0 -0 -0 -0 -0 -1 -1 -0 0 1 1 1 1 2 2 2 2 3 3 3 3 3 3 3 4 4 4
-2 -2 -2 -2 -2 -2 -2 -2 -2 -2 -2 -1 -1 -1 -1 -1 -1 -1 -1 -1 -1 -1 -1 -0 -0 0 0 0 1 1 1 2 2 2 2 2 2 3 3 3 3 3 4
-3 -3 -3 -3 -3 -3 -3 -3 -3 -2 -2 -2 -2 -2 -2 -2 -1 -1 -1 -1 -1 -1 -1 -1 -1 -0 -0 -0 -0 0 0 1 1 1 1 1 2 2 2 2 2 3 3
-3 -3 -3 -3 -3 -3 -3 -3 -3 -3 -3 -3 -2 -2 -2 -2 -2 -2 -2 -2 -2 -2 -2 -2 -1 -1 -1 -1 -1 -1 -0 -0 0 0 1 1 1 1 1 1 2 2 2
-4 -4 -4 -4 -4 -4 -4 -4 -4 -4 -4 -3 -3 -3 -2 -2 -2 -2 -2 -2 -2 -2 -2 -2 -2 -2 -2 -2 -2 -2 -1 -1 -1 -0 -0 0 0 0 0 1 1 1 1
-5 -5 -5 -5 -5 -5 -4 -4 -4 -4 -4 -4 -4 -3 -3 -3 -3 -3 -3 -3 -3 -3 -3 -3 -2 -2 -2 -2 -2 -2 -2 -2 -1 -1 -1 -0 -0 -0 -0 0 0 0 1
-5 -5 -5 -5 -5 -5 -5 -5 -5 -5 -5 -4 -4 -4 -4 -3 -3 -3 -3 -3 -3 -3 -3 -3 -3 -3 -3 -3 -3 -3 -3 -3 -3 -2 -2 -1 -1 -1 -1 -1 -0 -0 -0
-6 -6 -6 -6 -6 -6 -5 -5 -5 -5 -5 -5 -5 -4 -4 -4 -4 -3 -3 -4 -3 -3 -4 -3 -3 -3 -3 -3 -3 -3 -3 -3 -3 -3 -3 -2 -2 -2 -2 -2 -1 -1 -1
-6 -6 -6 -6 -6 -6 -6 -6 -6 -6 -5 -5 -5 -5 -5 -4 -4 -4 -4 -4 -4 -4 -4 -4 -4 -4 -4 -4 -4 -4 -4 -4 -4 -3 -3 -3 -3 -3 -2 -2 -2 -2 -2
-7 -7 -7 -7 -7 -6 -6 -6 -6 -6 -6 -6 -6 -5 -5 -5 -5 -5 -5 -5 -4 -4 -4 -4 -4 -4 -4 -4 -4 -4 -4 -4 -4 -4 -4 -4 -4 -4 -3 -3 -3 -3 -2
-7 -7 -7 -7 -7 -7 -7 -7 -7 -7 -7 -6 -6 -6 -6 -6 -6 -5 -5 -5 -5 -5 -5 -5 -5 -5 -5 -5 -5 -5 -5 -5 -5 -5 -5 -5 -5 -5 -5 -4 -3 -3 -3
Wind_Speed
5 5 5 5 6 5 5 5 5 5 5 4 3 3 2 3 2 2 2 2 2 3 3 3 2 2 1 1 2 2 2 2 2 2 3 2 2 2 3 4 4 5 5
4 4 4 5 5 5 4 4 4 4 3 3 2 2 2 2 2 2 2 1 1 2 2 2 2 2 2 1 1 1 1 2 1 1 2 2 1 1 2 2 4 5 5
3 3 3 4 4 4 4 4 4 4 3 3 2 2 2 2 2 2 1 1 1 2 2 1 1 2 2 2 1 1 1 0 0 1 2 2 2 1 2 2 2 5 5
3 3 3 3 4 4 3 3 3 2 2 2 2 2 2 2 1 1 1 1 1 1 1 2 2 2 2 2 2 1 1 1 2 2 2 3 3 3 3 3 2 2 5
2 2 2 3 3 4 3 3 2 2 2 2 2 2 1 1 1 1 1 1 1 1 1 2 2 2 2 2 2 2 2 2 2 3 3 3 4 5 5 4 4 4 3
1 1 2 2 3 2 3 2 2 2 2 2 2 2 2 2 1 0 0 1 1 1 1 2 2 3 3 3 3 3 3 3 3 3 4 4 5 4 5 5 5 5 4
0 1 1 2 2 1 1 2 2 2 2 2 1 2 2 1 1 1 0 1 1 1 2 2 2 3 3 4 4 4 3 3 3 4 4 4 4 6 5 6 6 6 6
0 0 1 1 1 1 1 1 2 1 1 2 1 0 1 2 1 1 1 1 0 2 2 2 2 3 3 3 4 4 4 4 4 5 5 6 5 6 6 5 6 7 6
1 1 1 1 0 0 1 1 1 1 1 1 1 0 0 2 2 2 1 1 0 0 1 3 3 4 4 3 4 4 5 6 6 6 6 6 6 6 7 7 6 6 6
2 2 2 1 1 1 1 2 1 1 1 1 1 1 1 1 1 2 2 1 1 1 2 3 4 4 4 4 4 5 5 6 7 7 7 7 7 7 8 8 8 7 7
2 3 2 2 2 1 1 1 1 1 1 2 1 1 1 1 2 2 3 3 2 2 2 3 3 4 4 4 3 5 5 6 8 8 8 8 8 8 8 9 9 8 8
2 3 3 2 2 2 2 2 2 2 2 2 2 2 2 1 2 2 3 3 4 3 3 3 3 3 4 3 4 6 6 5 7 9 9 10 10 10 10 10 11 10 8
3 4 3 3 3 3 3 3 2 3 3 3 3 3 3 3 2 2 3 4 4 3 2 3 3 3 3 3 4 7 6 6 7 8 10 11 11 10 11 10 11 11 10
4 4 4 4 4 4 4 3 3 3 3 4 4 4 3 3 3 3 3 3 4 3 3 4 2 2 3 4 6 7 6 7 8 9 10 10 10 10 10 11 11 9 10
4 5 5 5 5 4 4 4 3 4 4 4 5 4 4 4 4 4 3 3 3 5 6 3 2 2 4 5 7 7 7 8 9 9 10 10 10 10 9 10 10 9 9
5 5 5 5 5 5 5 4 4 4 5 5 4 5 5 5 4 4 4 4 4 5 6 4 4 3 4 6 8 8 8 10 9 9 9 9 9 8 8 9 9 9 8
6 6 6 6 6 6 5 5 5 5 6 6 5 6 6 6 5 5 4 4 5 5 7 6 4 3 4 4 6 7 7 7 7 9 8 8 8 7 7 7 7 7 6
6 7 6 6 6 6 6 6 6 6 6 7 7 6 7 6 6 5 5 6 5 5 6 7 5 4 5 4 5 5 6 6 6 8 8 8 8 7 8 8 7 7 6
6 6 6 7 7 7 7 7 7 7 7 8 7 8 7 7 7 6 6 6 5 5 5 6 6 5 4 3 4 5 5 5 6 7 7 7 7 7 8 8 8 8 6
6 6 7 7 7 7 7 7 7 7 8 8 8 8 8 8 8 8 7 7 6 6 5 5 5 5 4 3 3 4 4 4 4 5 7 7 7 6 7 7 8 7 7
6 6 7 7 7 7 7 8 8 8 8 8 8 8 8 9 10 9 7 6 6 5 5 5 5 5 4 3 4 4 5 5 5 4 4 5 4 3 4 6 7 7 7
6 6 7 7 7 7 9 11 9 8 8 8 8 7 7 8 10 11 11 10 8 7 6 6 6 6 6 5 4 4 5 5 5 2 3 4 4 4 5 5 8 8 6
6 6 7 7 8 9 11 12 12 8 8 7 7 7 6 7 8 6 8 9 9 10 10 8 7 7 6 5 5 5 6 6 7 4 3 5 4 5 6 7 10 9 7
6 7 7 7 8 9 11 11 11 7 7 7 8 8 8 7 8 8 7 7 7 7 8 7 7 7 7 6 6 6 6 6 6 5 3 5 4 5 6 7 10 9 8
6 6 7 7 7 8 10 10 10 6 6 7 7 8 8 8 10 10 7 7 6 6 7 8 9 9 9 9 6 3 3 4 6 5 2 3 4 4 5 5 8 9 9
6 6 6 6 7 7 9 10 10 6 6 6 6 7 9 9 9 9 7 6 7 6 4 4 6 6 5 5 6 5 5 5 5 5 3 2 3 3 4 4 4 5 6
Wind_Direction
40 33 32 37 37 36 36 34 34 30 34 40 41 43 35 32 29 22 9 12 22 24 34 41 41 41 56 75 79 117 137 129 123 136 132 121 98 133 147 156 157 157 149
49 38 31 28 29 30 27 26 26 18 14 22 10 13 20 22 14 12 4 346 338 353 5 13 18 16 19 37 38 59 99 134 126 142 155 149 123 113 166 166 182 170 164
57 43 36 26 15 16 25 27 24 24 17 13 345 345 4 359 355 350 0 4 334 329 342 334 333 331 346 345 2 19 36 29 215 236 221 203 198 213 200 192 189 192 184
64 55 38 19 8 14 24 19 16 11 4 355 325 317 339 337 320 331 8 16 18 349 331 334 336 336 332 334 311 289 297 317 295 265 266 235 223 227 225 215 214 193 196
69 57 32 12 24 19 16 14 13 349 340 337 310 295 303 310 311 343 8 13 19 23 2 336 335 337 330 325 315 280 275 293 301 278 265 254 239 238 231 235 226 214 212
66 47 22 15 29 25 11 7 354 347 316 306 307 303 284 279 312 347 297 6 359 353 350 340 324 315 306 294 295 277 266 271 283 292 279 267 250 241 238 242 237 225 227
34 35 15 10 24 23 350 353 347 342 345 340 355 330 312 273 248 228 9 25 3 341 331 316 315 312 301 288 281 274 265 266 273 283 284 282 266 243 249 248 245 234 232
319 357 19 334 6 15 350 350 7 352 337 6 14 2 309 309 294 271 242 213 6 4 348 320 309 298 301 289 286 277 266 268 276 277 281 276 277 250 247 252 257 238 231
262 247 248 278 335 146 248 289 328 325 280 311 16 91 198 249 289 272 242 224 249 321 338 322 307 308 299 285 284 273 269 271 272 273 274 274 270 264 250 253 256 252 238
249 252 244 228 226 223 240 258 329 276 223 244 286 309 251 234 244 284 274 239 258 264 279 316 309 298 293 296 287 277 266 265 266 270 271 273 270 273 264 255 252 253 243
246 245 233 224 214 227 234 256 283 265 239 233 238 277 276 289 244 245 260 276 291 259 265 282 285 285 282 281 292 297 282 271 268 268 269 271 273 271 278 265 253 252 249
235 243 237 229 226 230 234 239 248 244 243 247 242 233 225 222 246 263 259 275 283 283 286 274 267 275 278 282 290 308 300 295 282 273 270 271 274 275 276 280 262 250 253
231 226 237 230 231 237 243 246 237 243 242 235 240 238 235 235 239 261 271 282 284 293 277 262 260 277 283 290 296 304 291 289 294 291 284 277 274 278 276 281 274 254 250
225 224 230 232 239 245 249 249 241 246 245 240 246 245 238 242 232 234 247 273 286 278 265 259 263 260 284 296 295 300 295 289 289 289 291 285 281 282 281 278 273 264 254
227 221 221 228 236 238 239 236 239 244 243 248 244 246 242 244 237 234 236 236 247 266 267 264 265 253 289 293 295 296 301 292 290 288 289 288 280 278 284 279 275 262 259
226 222 224 227 233 235 237 235 244 242 240 248 248 240 243 243 240 237 236 240 246 255 266 266 275 280 283 292 292 293 295 290 287 286 287 290 286 277 279 277 278 263 261
222 223 224 226 231 233 232 233 238 241 243 249 250 244 246 241 238 234 236 238 243 249 261 278 282 282 271 272 285 288 290 290 282 279 280 283 286 285 282 279 285 269 265
225 225 223 225 231 234 232 231 237 241 240 244 246 244 247 243 240 234 234 240 243 248 253 269 279 276 267 261 268 277 290 294 283 279 279 280 280 285 286 277 279 270 263
229 228 224 226 231 233 234 236 235 238 239 240 242 241 244 240 247 241 239 242 246 253 252 256 268 274 274 267 275 287 286 296 288 288 286 282 283 285 285 283 277 270 263
227 227 229 231 232 234 237 239 241 240 240 243 244 242 242 238 243 239 241 241 242 246 251 251 259 268 273 268 262 277 287 297 288 294 292 288 288 290 290 295 287 273 261
234 233 232 235 234 234 236 234 235 238 239 242 247 245 245 248 254 249 248 238 234 240 252 256 259 270 271 267 262 275 280 293 282 280 283 285 283 283 291 294 294 276 266
235 234 235 236 239 242 249 252 250 242 243 242 247 249 249 253 258 261 261 259 252 243 242 252 259 258 262 264 267 270 274 286 283 263 268 279 279 275 281 279 287 274 265
238 238 239 239 241 244 251 253 253 249 243 241 241 244 252 252 258 248 258 262 262 262 257 252 254 257 254 250 252 262 264 268 275 269 270 276 275 271 282 280 285 273 262
238 239 244 242 245 249 253 254 256 253 246 242 239 237 242 243 246 243 241 246 253 258 259 258 252 254 253 245 240 249 254 273 280 277 253 269 276 276 285 281 277 272 263
250 243 245 241 243 249 255 256 258 244 243 245 245 241 241 239 248 252 243 241 252 264 272 269 269 268 267 268 258 249 251 259 278 274 249 262 275 284 282 275 276 272 270
257 249 252 245 243 247 253 255 255 240 240 244 245 243 250 249 251 254 240 233 243 253 258 272 281 276 270 264 261 239 233 244 271 272 243 257 272 291 289 283 281 274 270
Height
1528 1528 1529 1529 1529 1530 1530 1531 1532 1533 1534 1535 1535 1536 1537 1538 1539 1539 1540 1541 1542 1543 1544 1544 1545 1546 1547 1548 1549 1550 1550 1551 1552 1553 1553 1554 1555 1555 1556 1557 1557 1558 1559
1526 1526 1527 1527 1528 1528 1528 1529 1530 1530 1531 1532 1533 1534 1535 1536 1537 1537 1538 1539 1540 1541 1542 1542 1543 1544 1545 1546 1547 1548 1548 1549 1550 1551 1551 1552 1553 1553 1554 1555 1556 1556 1557
1524 1525 1525 1525 1526 1526 1527 1527 1528 1528 1529 1530 1531 1532 1533 1534 1535 1535 1536 1537 1538 1539 1540 1540 1541 1542 1542 1543 1544 1545 1546 1547 1548 1549 1549 1550 1551 1551 1552 1553 1554 1555 1555
1522 1522 1523 1523 1523 1524 1524 1525 1525 1526 1526 1527 1528 1529 1530 1531 1532 1533 1534 1534 1535 1536 1537 1538 1538 1539 1540 1540 1541 1542 1543 1544 1545 1546 1547 1548 1548 1549 1550 1550 1551 1552 1553
1520 1520 1520 1521 1521 1521 1522 1522 1522 1523 1523 1524 1525 1526 1527 1528 1529 1530 1531 1532 1532 1533 1534 1535 1535 1536 1537 1537 1538 1539 1540 1541 1542 1543 1544 1545 1545 1546 1547 1548 1549 1549 1550
1517 1518 1518 1518 1518 1518 1519 1519 1520 1520 1520 1521 1522 1523 1524 1525 1525 1526 1527 1528 1529 1530 1531 1531 1532 1533 1533 1534 1535 1536 1537 1538 1539 1540 1540 1541 1542 1543 1544 1545 1545 1546 1547
1514 1514 1515 1515 1515 1515 1515 1516 1517 1517 1518 1518 1518 1518 1520 1521 1521 1523 1524 1525 1526 1527 1527 1528 1529 1529 1530 1531 1532 1532 1533 1534 1535 1536 1537 1538 1538 1539 1540 1541 1542 1543 1544
1511 1511 1512 1512 1512 1512 1513 1513 1514 1514 1514 1515 1515 1515 1515 1517 1517 1518 1519 1520 1522 1523 1524 1524 1525 1526 1526 1527 1527 1528 1529 1530 1531 1532 1533 1534 1534 1535 1536 1537 1538 1539 1540
1507 1508 1508 1509 1509 1509 1510 1510 1511 1511 1511 1512 1513 1514 1513 1512 1513 1513 1514 1516 1517 1518 1520 1521 1521 1522 1522 1523 1524 1524 1525 1526 1527 1528 1529 1529 1530 1531 1532 1533 1534 1535 1536
1503 1504 1505 1505 1506 1506 1507 1507 1508 1508 1509 1509 1510 1510 1512 1511 1510 1508 1510 1511 1513 1514 1515 1516 1517 1518 1518 1518 1519 1520 1521 1522 1522 1523 1524 1525 1526 1526 1527 1528 1529 1530 1531
1499 1500 1501 1501 1501 1502 1503 1504 1504 1505 1505 1506 1506 1506 1507 1508 1507 1507 1505 1506 1508 1509 1510 1511 1512 1513 1514 1514 1514 1515 1516 1517 1517 1518 1519 1520 1521 1521 1522 1523 1524 1525 1526
1494 1495 1496 1497 1497 1498 1499 1499 1500 1501 1501 1502 1503 1503 1503 1504 1504 1504 1502 1501 1502 1503 1505 1506 1507 1508 1508 1509 1509 1510 1511 1511 1512 1513 1514 1515 1515 1516 1517 1518 1519 1520 1520
1489 1490 1491 1492 1493 1494 1495 1495 1495 1496 1497 1498 1499 1500 1500 1500 1501 1501 1500 1499 1498 1498 1499 1501 1502 1502 1503 1503 1504 1504 1505 1506 1506 1507 1508 1509 1510 1511 1511 1512 1513 1514 1515
1483 1485 1486 1487 1488 1489 1490 1490 1491 1492 1493 1493 1494 1495 1495 1496 1497 1497 1497 1497 1495 1494 1494 1495 1496 1497 1498 1498 1498 1499 1499 1500 1500 1501 1501 1503 1504 1505 1505 1506 1507 1508 1509
1478 1479 1481 1481 1482 1483 1484 1485 1486 1487 1488 1488 1489 1490 1490 1491 1492 1492 1493 1494 1494 1491 1489 1489 1490 1491 1492 1493 1493 1493 1493 1494 1494 1495 1495 1496 1497 1498 1499 1500 1501 1502 1503
1472 1473 1475 1476 1477 1478 1479 1480 1480 1481 1482 1483 1483 1484 1485 1486 1486 1487 1488 1489 1489 1489 1486 1484 1485 1486 1487 1487 1488 1488 1488 1488 1488 1489 1489 1490 1490 1491 1492 1494 1494 1495 1496
1466 1467 1469 1469 1470 1472 1473 1474 1474 1475 1476 1477 1477 1478 1479 1480 1481 1482 1483 1483 1483 1484 1482 1480 1480 1481 1481 1481 1481 1481 1482 1482 1482 1483 1483 1483 1484 1485 1486 1487 1487 1488 1489
1460 1462 1462 1463 1464 1465 1467 1468 1468 1469 1470 1471 1472 1473 1474 1475 1475 1476 1477 1477 1477 1477 1477 1475 1474 1475 1475 1475 1475 1475 1475 1476 1476 1477 1477 1478 1478 1478 1479 1480 1481 1481 1482
1454 1455 1456 1457 1458 1459 1460 1461 1463 1463 1464 1465 1466 1467 1468 1469 1469 1470 1471 1471 1471 1472 1472 1471 1469 1470 1470 1470 1470 1469 1469 1469 1470 1471 1471 1472 1472 1472 1473 1473 1474 1475 1476
1448 1449 1450 1451 1452 1453 1454 1455 1457 1457 1458 1459 1460 1461 1462 1463 1463 1464 1465 1465 1466 1466 1466 1466 1464 1464 1464 1464 1465 1464 1463 1463 1464 1464 1465 1465 1466 1466 1467 1467 1468 1468 1469
1442 1443 1444 1445 1445 1446 1448 1449 1450 1451 1452 1453 1454 1455 1455 1456 1457 1458 1459 1459 1460 1460 1460 1460 1459 1459 1458 1459 1459 1459 1458 1458 1458 1458 1458 1458 1459 1459 1460 1460 1460 1461 1462
1436 1437 1437 1438 1439 1440 1441 1443 1444 1445 1446 1447 1447 1448 1449 1450 1451 1452 1453 1454 1454 1454 1454 1454 1453 1452 1452 1453 1454 1454 1453 1452 1451 1453 1453 1452 1453 1453 1453 1453 1453 1454 1455
1430 1430 1431 1432 1432 1433 1435 1437 1438 1440 1440 1441 1441 1442 1442 1443 1445 1445 1446 1447 1447 1448 1449 1449 1447 1447 1447 1448 1449 1448 1448 1447 1446 1446 1447 1445 1446 1446 1447 1447 1447 1448 1448
1423 1424 1425 1425 1426 1427 1429 1430 1432 1433 1434 1434 1435 1436 1436 1437 1438 1438 1439 1440 1440 1441 1442 1442 1442 1442 1442 1442 1443 1443 1442 1441 1440 1440 1441 1440 1439 1440 1440 1440 1440 1441 1442
1417 1418 1418 1419 1420 1421 1423 1424 1426 1426 1427 1427 1428 1429 1430 1430 1431 1433 1434 1434 1434 1434 1435 1436 1437 1437 1437 1437 1437 1437 1437 1436 1434 1434 1435 1435 1434 1434 1434 1433 1434 1434 1435
1411 1412 1413 1414 1415 1415 1417 1418 1420 1420 1420 1421 1422 1423 1424 1425 1425 1427 1427 1427 1427 1428 1429 1429 1430 1430 1430 1430 1431 1432 1431 1431 1429 1428 1428 1430 1429 1429 1428 1426 1427 1427 1428